Location: Agus-us
(14.2247°N, 120.8593°E)
Time: 08:54:21
(UTC+00:00)

IUS-15 SRM-1 - Pass Details

Date: 13 December 2025
Orbit: 278 x 26677 km, 26.4° (Epoch: 15 January)

Event Time Altitude Azimuth Distance (km) Brightness Sun altitude
Rises 21:37:28 0° 249° (WSW) 4,890 7.7 -8.6°
Reaches altitude 10° 21:42:21 10° 253° (WSW) 2,410 6.1 -7.5°
Maximum altitude 21:46:34 61° 334° (NNW) 431 2.6 -6.6°
Drops below altitude 10° 21:48:32 10° 57° (ENE) 1,126 5.4 -6.1°
Sets 21:49:58 0° 62° (ENE) 1,894 6.7 -5.8°
